Regional Weather Roundup
Issued by NWS

Home | Current Version | Previous Version | Graphics & Text | Print | Product List | Glossary Off
Versions: 1 2 3 4 5 6 7 8 9 10 11 12 13 14 15 16 17 18 19 20 21 22 23 24 25 26 27 28 29 30 31 32 33 34 35 36 37 38 39 40 41 42 43 44 45 46 47 48 49 50

000
ASUS43 KDMX 012107
RWRIA

WEATHER ROUNDUP FOR IOWA
NATIONAL WEATHER SERVICE DES MOINES IA
400 PM CDT MON SEP 01 2014

NOTE: "FAIR" INDICATES FEW OR NO CLOUDS BELOW 12,000 FEET WITH NO
SIGNIFICANT WEATHER AND/OR OBSTRUCTIONS TO VISIBILITY.

* - THESE STATIONS ARE NOT NWS STATIONS...THUS NOT UNDER NWS
QUALITY CONTROL.  THEY ALSO DO NOT REPORT WEATHER SUCH
AS PRECIPITATION OR FOG.

IAZ001>003-012>014-020>022-031>034-043>046-012200-
   NORTHWEST IOWA

CITY           SKY/WX    TMP DP  RH WIND       PRES   REMARKS
CARROLL *      SUNNY     77  61  57 NW8G15    29.85S
CHEROKEE *     MOSUNNY   77  63  61 W9        29.84S
DENISON *      MOSUNNY   75  63  64 NW6G12    29.85S
LE MARS *      PTSUNNY   77  61  57 W8        29.85S
ORANGE CITY *  MOSUNNY   77  61  57 W12       29.85S
SHELDON *      MOSUNNY   77  63  61 NW9G16    29.83S
SIOUX CITY     SUNNY     79  60  52 VRB6      29.84F HX  80
SPENCER        MOSUNNY   78  60  53 W9        29.83F
STORM LAKE *   MOSUNNY   75  70  83 W10       29.85S
$$

IAZ055>058-069>071-079>083-090>094-012200-
   SOUTHWEST IOWA

CITY           SKY/WX    TMP DP  RH WIND       PRES   REMARKS
ATLANTIC *     MOSUNNY   77  63  61 NW9       29.86S
AUDUBON *      SUNNY     81  64  57 NW3       29.87F HX  82
CLARINDA *     PTSUNNY   77  66  69 SW9       29.89S
COUNCIL BLFS * SUNNY     79  64  61 VRB6      29.87R HX  81
CRESTON *      MOSUNNY   75  63  64 W10       29.88R
HARLAN  *      MOSUNNY   77  61  57 NW8       29.90S
LAMONI         PTSUNNY   76  64  66 W10       29.87S
RED OAK *      MOSUNNY   77  64  65 NW6       29.87S
SHENANDOAH *   PTSUNNY   77  66  69 SW8       29.87F
$$

IAZ047>049-059>061-072>074-084-012200-
   CENTRAL IOWA

CITY           SKY/WX    TMP DP  RH WIND       PRES   REMARKS
AMES           MOSUNNY   77  62  59 NW13      29.83R
ANKENY *       MOSUNNY   79  63  57 W12G17    29.83R HX  80
CHARITON *     MOSUNNY   77  66  69 W9G18     29.85S
DES MOINES     PTSUNNY   81  62  52 W15       29.83R HX  82
GRINNELL*      MOSUNNY   77  64  65 W10G21    29.82S
KNOXVILLE *    SUNNY     77  64  65 W14       29.82R
MARSHALLTOWN   MOSUNNY   77  63  61 W16       29.81R
PELLA *        PTSUNNY   79  64  61 W8        29.84R HX  81
PERRY *        PTSUNNY   77  63  61 NW7       29.85R
$$

IAZ004>006-015-016-023>025-035-036-012200-
   NORTH CENTRAL IOWA

CITY           SKY/WX    TMP DP  RH WIND       PRES   REMARKS
ALGONA *       MOSUNNY   77  59  53 NW9G16    29.83R
CLARION *      SUNNY     77  59  53 NW10      29.82S
ESTHERVILLE    SUNNY     74  60  61 W7        29.82S
FORT DODGE *   MOSUNNY   77  59  53 W7        29.83S
MASON CITY     SUNNY     78  58  49 NW15      29.82S
FOREST CITY *  MOSUNNY   77  61  57 NW9       29.81S
IOWA FALLS *     N/A     77  59  53 NW14      29.83R
$$

IAZ007>011-017>019-026>030-037>042-050>054-066-012200-
   NORTHEAST IOWA

CITY           SKY/WX    TMP DP  RH WIND       PRES   REMARKS
CEDAR RAPIDS   MOSUNNY   79  66  64 W14       29.78R HX  81
CHARLES CITY * SUNNY     75  59  57 NW13G20   29.80R
CLINTON *      MOSUNNY   82  66  57 W16G22    29.80R HX  85
DECORAH *      MOSUNNY   75  61  60 VRB7G14   29.76S
DUBUQUE        PTSUNNY   77  64  64 W18G24    29.76S
MONTICELLO *   PTSUNNY   81  68  65 W17       29.77R HX  83
OELWEIN *      MOSUNNY   75  66  73 NW10      29.80R
WATERLOO       MOSUNNY   77  61  57 W13G20    29.78S
$$

IAZ064-065-067-068-078-012200-
   EAST CENTRAL IOWA

CITY           SKY/WX    TMP DP  RH WIND       PRES   REMARKS
DAVENPORT      SUNNY     80  65  59 W17G23    29.80R HX  82
IOWA CITY      MOSUNNY   80  67  64 W13G22    29.79S HX  82
MT. PLEASANT * MOSUNNY   82  64  54 SW16      29.83S HX  84
MUSCATINE *    PTSUNNY   81  66  61 SW16G23   29.80S HX  83
QUAD CITIES    PTSUNNY   80  66  62 W13       29.79S HX  82
$$

IAZ062-063-075>077-085>089-095>099-012200-
   SOUTHEAST IOWA

CITY           SKY/WX    TMP DP  RH WIND       PRES   REMARKS
BURLINGTON     LGT RAIN  80  67  64 SW12      29.83S HX  82
FAIRFIELD *    MOSUNNY   79  66  65 SW10      29.83R HX  81
FORT MADISON * MOSUNNY   82  70  65 SW10G16   29.85S HX  86
KEOKUK *       PTSUNNY   81  68  65 SW13      29.84S HX  83
OSKALOOSA *      N/A     79  66  65 W12G17    29.83R HX  81
CENTERVILLE *  MOSUNNY   79  68  69 SW12      29.87S HX  81
OTTUMWA        MOSUNNY   80  65  59 SW10      29.82R HX  82
WASHINGTON *   MOSUNNY   79  68  69 W7        29.82R HX  81
$$

ABBREVIATIONS USED IN REMARKS
   TC - TEMPERATURES IN CELSIUS
  WCI - WIND CHILL INDEX
   HX - HEAT INDEX
  VSB - VISIBILITY
$$



USA.gov is the U.S. government's official web portal to all federal, state and local government web resources and services.